User: anonymous   Login
Location: Keewatin
(47.4004°N, 93.0827°W)
Time: 14:51:54
(UTC+00:00)
Language:

DIWATA 2B (PO-101) - Orbit

View from above orbital plane
View from above orbital plane
View from above satellite
View from above satellite

Ground track
Ground track

The orbit data is extracted from the following two-line orbital elements,

1 43678U 18084H   20049.39657603 -.00000313  00000-0 -25430-4 0  9990
2 43678  97.8690 167.9272 0009186 207.7185 152.3539 14.91602738 71127
Epoch (UTC): 18 February 2020 09:31:04
Eccentricity: 0.0009186
inclination: 97.8690°
perigee height: 586 km
apogee height: 599 km
right ascension of ascending node: 167.9272°
argument of perigee: 207.7185°
revolutions per day: 14.91602738
mean anomaly at epoch: 152.3539°
orbit number at epoch: 7112

The dashed part of the orbit path shows where the satellite is in the earth's shadow,  

DLR